Location: Berlin-Weissensee
(52.5475°N, 13.4667°E)
Time: 02:23:08
(UTC+00:00)

Daily predictions for brighter satellites

Satellite Brightness Start Highest point End
(mag) Time Altitude Azimuth Time Altitude Azimuth Time Altitude Azimuth
CZ-4C R/B 3.6 00:06:34 34° NNW 00:07:28 36° NNW 00:13:42 10° NE
USA 234 3.5 00:01:03 10° E 00:07:30 65° N 00:07:48 64° N
Cosmos 2369 Rocket 3.5 00:10:56 34° NNW 00:10:56 34° NNW 00:15:03 10° NNE
SL-8 Rocket 4.5 00:10:58 10° N 00:16:20 56° NE 00:16:20 56° NE
Cosmos 2263 Rocket 4.5 00:21:46 10° NNW 00:26:05 22° NNE 00:30:24 10° E
Cosmos 2366 rocket 4.3 00:26:03 10° N 00:31:51 63° NE 00:31:51 63° NE
Cosmos 2218 Rocket 4.3 00:26:18 10° N 00:32:14 65° NE 00:32:14 65° NE
Gbstr 26 Del rocket 4.4 00:36:04 83° ESE 00:36:04 83° ESE 00:43:40 10° E
ADEOS II 3.5 00:39:58 10° NNE 00:44:28 29° E 00:44:28 29° E
BREEZE-M DEB (TANK) 4.5 00:54:40 72° S 00:54:41 72° S 01:14:56 10° E
Cosmos 2227 Rocket 3.6 00:51:26 10° NNW 00:54:07 29° NW 00:54:07 29° NW
Cosmos 2181 Rocket 4.0 00:58:47 76° NE 00:58:47 76° NE 01:04:35 10° NNE
USA 267 4.1 01:06:51 10° ENE 01:12:43 34° SE 01:13:06 34° SE
SL-16 R/B 3.2 01:15:10 40° NW 01:15:10 40° NW 01:19:24 10° NNW
SJ 16-02 3.7 01:15:54 10° N 01:19:25 23° NE 01:22:55 10° ESE
CZ-2D R/B 2.4 01:14:18 10° NNE 01:18:48 62° N 01:18:48 62° N
ATLAS 2AS CENTAUR R/B 4.0 01:13:39 10° NW 01:20:59 41° NNE 01:27:51 10° E
NOSS 2-2 (D) 4.2 01:22:27 89° NNE 01:22:27 89° NNE 01:29:47 10° SE
Cosmos 1943 Rocket 4.4 01:21:06 13° NW 01:23:15 16° NNW 01:26:32 10° NNE
Resurs 1-4 Rocket 2.4 01:21:27 10° N 01:25:57 58° NNW 01:25:57 58° NNW
Lacrosse 5 2.9 01:29:27 35° ESE 01:29:27 35° ESE 01:33:24 10° ENE
ATLAS 5 CENTAUR R/B 2.5 01:30:41 46° N 01:30:41 46° N 01:34:44 10° NE
Cosmos 2369 4.4 01:29:32 42° SE 01:30:22 44° ESE 01:35:47 10° NE
NPP 3.7 01:25:16 10° NNE 01:30:13 69° NNW 01:30:13 69° NNW
H-2A R/B 4.4 01:31:03 10° ESE 01:34:36 24° ENE 01:38:11 10° N
SL-08 R/B 3.5 01:37:45 68° NE 01:37:45 68° NE 01:42:08 10° NNW
Cosmos 2297 Rocket 4.3 01:38:27 10° NW 01:39:21 14° NW 01:39:21 14° NW
Cosmos 1818 3.6 01:44:09 65° NW 01:44:15 65° NW 01:49:43 10° NE
IRS-P3 4.3 01:44:37 10° NNE 01:49:58 66° ESE 01:51:04 53° SSE
AQUA 4.3 01:45:34 10° N 01:49:34 51° NW 01:49:34 51° NW
USA 234 3.1 01:43:55 10° ESE 01:50:28 80° SSW 01:55:07 21° WNW
Timation 1 Rocket 4.2 01:44:55 10° NW 01:50:57 86° WSW 01:56:58 10° SSE
Cosmos 1470 Rocket 3.8 01:46:52 10° N 01:50:50 68° NNE 01:50:50 68° NNE
Cosmos 1777 Rocket 4.3 01:49:30 10° NNW 01:53:37 53° NW 01:53:37 53° NW
Cosmos 1992 Rocket 4.2 01:54:52 54° NW 01:54:52 54° NW 01:59:56 10° NNE
Cosmos 2369 Rocket 4.4 01:52:43 11° NW 01:55:32 15° NNW 01:58:46 10° NNE
CZ-4C R/B 4.1 01:51:58 10° NW 01:57:40 34° NNE 02:04:23 10° ENE
Cosmos 1821 Rocket 3.9 01:52:00 10° NNW 01:58:19 75° W 02:00:05 49° SSW
CZ-4B R/B 3.4 01:53:22 10° NNE 01:58:27 75° WNW 01:58:43 73° WSW
Cosmos 1697 Rocket 2.6 02:01:35 59° S 02:02:41 80° ESE 02:08:20 10° NNE
Cosmos 972 Rocket 3.9 02:05:43 59° S 02:06:32 75° ESE 02:11:30 10° NNE
NOSS 2-2 (C) 4.4 02:06:12 50° W 02:07:14 56° SW 02:14:32 10° SSE
Cosmos 1980 Rocket 2.8 02:05:37 34° SSE 02:07:48 52° ESE 02:13:17 10° NE
Cosmos 220 Rocket 4.5 02:08:28 47° NNW 02:08:28 47° NNW 02:12:06 10° NNE
Cosmos 1934 Rocket 3.9 02:03:37 10° N 02:09:44 84° E 02:15:17 13° SSE
SL-24 R/B 4.3 02:08:57 48° S 02:10:19 84° WSW 02:15:53 10° NNW
Cosmos 2263 Rocket 2.4 02:05:22 10° NNW 02:11:02 71° NE 02:16:42 10° SE
Cosmos 1356 4.4 02:09:27 10° N 02:11:56 42° N 02:11:56 42° N
Cosmos 1933 3.7 02:13:43 53° NNW 02:13:43 53° NNW 02:17:08 10° N
Meteor 1-26 Rocket 4.2 02:11:26 40° S 02:13:26 77° E 02:18:52 10° NNE
Meteor 1-25 Rocket 4.3 02:08:10 10° NNW 02:13:52 59° W 02:14:52 52° SW
Cosmos 1515 Rocket 3.7 02:12:56 52° SSE 02:13:54 70° E 02:18:20 10° NNE
Gbstr 26 Del rocket 4.4 02:18:38 28° W 02:23:17 68° SSW 02:30:45 10° ESE
SL-16 R/B 4.2 02:19:36 10° SSE 02:24:01 24° ESE 02:28:28 10° NE
Cosmos 1328 Rocket 3.6 02:24:02 60° W 02:24:09 60° WNW 02:28:35 10° N
ADEOS II 2.3 02:19:24 10° N 02:24:31 52° WNW 02:25:24 46° W
Celestis-02/Orion 38 4.5 02:20:16 10° SSE 02:25:29 67° WSW 02:30:38 10° NW
Cosmos 1500 3.7 02:21:48 10° N 02:25:38 60° ENE 02:28:34 16° SSE
CZ-3B R/B 1.8 02:25:23 69° SW 02:25:47 83° SSE 02:34:05 10° ENE
Cosmos 1151 Rocket 3.2 02:26:32 52° WNW 02:26:32 52° WNW 02:30:43 10° N
USA 305 3.0 02:27:21 57° S 02:27:45 60° SSE 02:31:57 10° ENE
Cosmos 1933 Rocket 3.4 02:24:10 10° NNW 02:28:30 65° W 02:28:51 62° SW
Cosmos 1812 4.3 02:26:12 14° SSE 02:29:03 34° E 02:32:35 10° NNE
Nadezhda 3 Rocket 3.9 02:26:57 40° SW 02:29:11 64° WNW 02:35:19 10° N
Cosmos 2227 4.1 02:23:30 10° NNW 02:29:13 85° WSW 02:34:51 10° SSE
ARIANE 5 R/B 2.4 02:24:21 10° NNE 02:29:29 83° WNW 02:31:22 40° SSW
Cosmos 1666 4.4 02:27:36 10° N 02:31:09 34° ENE 02:34:38 10° SE
USA 306 3.0 02:31:23 56° SSW 02:31:56 62° SSE 02:36:09 10° ENE
Cosmos 1656 4.2 02:32:28 36° W 02:33:51 42° NW 02:39:08 10° NNE
IDEFIX/ARIANE 42P 2.6 02:28:37 10° NNE 02:33:56 85° ESE 02:36:51 28° SSW
IRS-1D 4.1 02:29:21 10° N 02:34:22 41° WNW 02:35:24 37° W
CZ-4C R/B 3.2 02:32:38 21° SSE 02:34:58 73° ENE 02:38:32 10° N
Cosmos 1605 Rocket 4.0 02:29:57 10° N 02:36:23 86° ENE 02:42:49 10° S
Cosmos 1535 Rocket 4.5 02:31:25 10° NNW 02:37:46 69° W 02:44:05 10° S
Meteor 1-14 Rocket 4.1 02:32:27 10° NNW 02:38:01 64° W 02:42:40 15° S
ASTEX 1 3.3 02:33:52 10° N 02:38:52 76° W 02:41:21 30° SSW
CZ-2C R/B 3.9 02:34:29 10° NNE 02:39:14 37° E 02:44:01 10° SSE
Cosmos 2228 Rocket 3.3 02:39:36 23° S 02:42:19 71° E 02:46:44 10° NNE
Meteor 1-5 Rocket 4.1 02:37:41 10° NNW 02:43:02 85° ENE 02:48:26 10° SSE
CZ-2D R/B 3.4 02:42:30 10° NNE 02:46:43 74° WNW 02:48:18 37° SSW
Cosmos 1869 Rocket 3.5 02:43:33 10° N 02:47:56 86° ENE 02:52:16 10° S
NOSS 3-4 (A) 4.0 02:42:09 10° NW 02:48:56 74° NE 02:56:30 10° SE
NOSS 3-4 (C) 4.0 02:42:15 10° NW 02:49:02 74° NE 02:56:37 10° SE
IRS-1C 4.4 02:45:36 10° N 02:50:44 49° WNW 02:52:48 32° WSW
USA 267 3.3 02:49:44 10° ENE 02:56:19 82° SSE 03:00:27 25° WSW
Cosmos 1238 Rocket 4.1 02:51:12 10° NNW 02:57:38 53° W 03:03:36 10° SSW
CZ-2C R/B 2.6 02:54:20 10° NNE 02:58:07 87° WNW 03:00:12 26° SSW
SJ 16-02 1.3 02:54:02 10° NNW 02:58:22 60° WSW 03:02:42 10° S
CZ-2D R/B 3.8 02:55:34 10° NNW 02:58:52 17° NW 03:00:07 16° WNW
USA 307 2.8 02:57:59 38° WSW 02:59:33 79° SSE 03:03:49 10° ENE
Cosmos 1782 3.2 02:59:08 37° WSW 02:59:58 43° WNW 03:03:51 10° N
NOSS 3-3 (A) 4.3 02:56:41 19° SSW 03:01:00 61° SE 03:07:35 10° NE
NOSS 3-3 (C) 4.3 02:56:51 18° SSW 03:01:07 61° SE 03:07:38 10° NE
PSLV R/B 4.2 02:57:16 10° NNE 03:01:25 53° E 03:05:30 10° S
Cosmos 44 3.1 02:59:36 29° SW 03:01:53 81° SE 03:06:38 10° NE
USA 308 2.8 03:01:02 36° WSW 03:02:44 81° SSE 03:07:01 10° ENE
Meteor 1-4 Rocket 3.2 02:59:37 12° S 03:02:46 53° E 03:06:14 10° NNE
Cosmos 389 Rocket 2.8 03:02:26 41° WSW 03:03:02 46° WNW 03:06:32 10° N
PAYLOAD A 4.3 02:59:02 10° NNE 03:03:44 61° ESE 03:08:22 10° S
USA 276 2.3 03:04:24 46° SW 03:04:58 54° S 03:08:08 10° ESE
Resurs 1-4 Rocket 3.9 03:02:45 10° NNW 03:05:37 15° NW 03:07:01 14° WNW
Cosmos 2278 3.8 03:02:25 26° SW 03:05:42 65° NW 03:11:24 10° NNE
Cosmos 990 Rocket 3.9 03:01:25 10° NNW 03:06:37 73° WSW 03:11:48 10° SSE
ATLAS CENTAUR R/B 3.5 02:57:31 10° WNW 03:10:10 70° NNE 03:14:49 10° E
H-2A R/B 2.2 03:05:58 10° S 03:10:16 54° W 03:14:41 10° NNW
Lacrosse 5 1.9 03:08:39 27° WSW 03:11:28 76° NNW 03:16:34 10° ENE
Cosmos 2100 Rocket 4.4 03:06:22 10° N 03:12:46 71° ENE 03:19:08 10° SSE
ERBS 3.6 03:11:03 20° SSW 03:12:47 34° SE 03:15:51 10° ENE
ATLAS 2AS CENTAUR R/B 3.0 03:05:16 10° NW 03:12:58 81° NE 03:20:04 10° SE
Cosmos 2369 4.2 03:11:29 24° WSW 03:14:36 44° NW 03:20:06 10° NNE
Cosmos 468 Rocket 4.5 03:10:18 10° S 03:15:31 62° ESE 03:20:43 10° NNE
ATLAS 5 CENTAUR R/B 3.5 03:12:12 12° WNW 03:15:34 25° N 03:19:58 10° NE
Cosmos 1727 Rocket 4.2 03:09:25 10° S 03:15:46 80° E 03:22:07 10° NNE
Meteor 1-11 Rocket 3.7 03:15:05 10° NNW 03:20:55 76° W 03:26:35 10° S
ALOS 3.9 03:18:18 10° NNE 03:22:37 36° E 03:26:54 10° SSE
Landsat 5 4.0 03:18:42 10° S 03:22:59 41° W 03:27:13 10° NNW
GENESIS II 4.5 03:21:05 18° SSW 03:24:02 70° SE 03:28:04 10° NE
ADEOS Rocket 3.0 03:17:23 10° SSE 03:24:05 81° WSW 03:30:10 10° NNW
CZ-4B R/B 1.4 03:21:51 10° SSE 03:25:01 76° ENE 03:28:18 10° NNW
Cosmos 1459 Rocket 4.0 03:22:38 10° N 03:28:48 82° E 03:34:51 10° SSE
MSX 4.0 03:26:31 10° N 03:32:08 53° WNW 03:37:43 10° SW
ERS-2 2.3 03:29:32 10° S 03:33:04 46° WSW 03:36:38 10° NNW
USA 234 3.9 03:28:23 10° SSE 03:34:07 32° SW 03:39:54 10° WNW
Cosmos 1484 Rocket 4.1 03:31:33 10° NNE 03:35:24 44° E 03:39:15 10° S
COSMO-SKYMED 1 3.8 03:32:33 10° SE 03:36:42 45° ENE 03:40:52 10° N
Meteor 1-27 Rocket 3.9 03:30:45 10° S 03:36:43 83° E 03:42:38 10° NNE
Cosmos 1689 Rocket 3.3 03:36:13 10° SE 03:39:05 45° ENE 03:41:57 10° N
Cosmos 1536 2.8 03:36:58 10° NNW 03:41:01 62° W 03:45:01 10° S
Cosmos 1898 Rocket 3.8 03:36:31 10° NW 03:41:29 44° WSW 03:46:27 10° S
Cosmos 2360 Rocket 3.6 03:36:31 10° S 03:41:46 40° ESE 03:47:02 10° NE
X-37B 2.6 03:42:02 14° SW 03:43:03 15° SSW 03:45:01 10° SSE
Meteor 1-31 Rocket 3.9 03:43:11 10° NNE 03:46:54 46° E 03:50:37 10° S
Cosmos 1697 Rocket 3.9 03:43:20 14° W 03:47:17 28° NW 03:52:06 10° NNE
FENGYUN 3A 4.3 03:42:04 10° NNE 03:47:26 60° ESE 03:52:46 10° S
CZ-4C R/B 3.4 03:40:46 10° NW 03:47:27 62° NE 03:55:22 10° ESE
deb Chang Zheng 4 3.8 03:44:48 10° NNE 03:49:08 74° ESE 03:53:24 10° S
Cosmos 372 Rocket 4.0 03:44:13 10° NNW 03:49:26 89° ENE 03:54:33 10° SSE
Cosmos 1980 Rocket 2.9 03:47:24 13° WSW 03:52:01 38° NW 03:57:18 10° NNE
Cosmos 1908 Rocket 4.5 03:47:37 10° N 03:52:01 55° ENE 03:56:25 10° SSE
Cosmos 2263 Rocket 3.1 03:49:59 10° NW 03:54:29 25° WSW 03:58:58 10° SSW
PSLV R/B 4.3 03:50:39 10° SSE 03:54:41 68° ENE 03:58:47 10° N
Cosmos 2278 Rocket 4.0 03:49:40 10° NNW 03:54:43 32° NE 03:59:45 10° ESE
Cosmos 1437 Rocket 4.2 03:51:15 10° SSE 03:54:49 41° E 03:58:28 10° NNE
Cosmos 1544 3.9 03:52:01 10° N 03:55:35 55° ENE 03:59:06 10° SSE
Cosmos 921 Rocket 3.6 03:52:49 11° SW 03:56:29 35° WNW 04:00:22 10° N
Cosmos 1844 3.8 03:51:01 10° NNW 03:56:39 83° ENE 04:02:13 10° SSE
Cosmos 2322 Rocket 2.3 03:52:44 10° SSW 03:58:25 85° ESE 04:04:10 10° NNE
USA 32 4.4 03:53:44 10° NNW 03:58:43 44° W 04:03:40 10° SSW
Cosmos 1844 Rocket 2.7 03:55:22 10° NNW 04:01:01 80° WSW 04:06:41 10° SSE
Cosmos 2173 Rocket 4.1 03:55:13 10° NNW 04:01:26 62° W 04:07:41 10° S
ADEOS II 4.1 04:01:08 10° NNW 04:03:06 12° NW 04:05:05 10° WNW
COSMOS 2455 4.1 03:58:56 10° NNW 04:04:41 42° NE 04:10:23 10° ESE
Cosmos 1812 3.9 04:01:42 10° SW 04:04:55 25° WNW 04:08:10 10° NNW
Cosmos 1707 Rocket 3.8 04:01:03 10° SSW 04:05:14 48° WNW 04:09:29 10° N
Cosmos 1666 3.8 04:03:27 10° NW 04:06:35 24° W 04:09:41 10° SW
Cosmos 1937 Rocket 4.0 04:02:36 10° NW 04:07:18 36° WSW 04:11:57 10° S
SL-16 R/B 2.2 04:01:56 10° SW 04:07:36 73° WNW 04:13:19 10° NNE
USA 305 3.0 04:03:31 10° W 04:07:47 74° N 04:12:02 10° E
ARIANE 5 R/B 4.1 04:04:34 10° NNW 04:07:53 18° NW 04:11:09 10° W
ADEOS 3.6 04:03:42 10° NNE 04:08:57 79° WNW 04:14:09 10° SSW
Cosmos 2150 Rocket 4.2 04:04:55 10° NNW 04:10:26 86° ENE 04:15:53 10° SSE
USA 306 3.0 04:07:43 10° W 04:11:59 73° N 04:16:15 10° E
IDEFIX/ARIANE 42P 4.0 04:09:07 10° N 04:12:56 21° NW 04:16:43 10° W
Cosmos 1125 Rocket 4.0 04:08:48 10° NNW 04:14:07 67° ENE 04:19:22 10° SE
CZ-2C R/B 3.0 04:12:45 10° N 04:17:30 41° WNW 04:22:19 10° SW
Cosmos 1733 Rocket 3.6 04:14:41 10° NNW 04:18:43 37° W 04:22:41 10° SSW
Cosmos 1814 Rocket 4.3 04:13:34 10° SSW 04:18:47 77° ESE 04:24:05 10° NNE
Cosmos 841 Rocket 3.6 04:15:16 10° SSW 04:20:31 87° WNW 04:25:50 10° NNE
Cosmos 2061 Rocket 4.1 04:14:14 10° NNW 04:20:38 66° W 04:26:59 10° S
